Probability
0 0 100 68 61 61 77 77 81 84 65 32 13 3 0 0 0 0 0 0 0 0 0 0 0 0 0 0 0 0 0 0 0 0 0 0 0 0 0 0 0 0 0
0 0 97 65 35 32 29 39 55 55 45 19 10 3 0 0 0 0 0 0 0 0 0 0 0 0 0 0 0 0 0 0 0 0 0 0 0 0 0 0 0 0 0
0 0 52 61 16 10 3 3 13 19 26 16 3 0 0 0 0 0 0 0 0 0 0 0 0 0 0 0 0 0 0 0 0 0 0 0 0 0 0 0 0 0 0
0 0 3 61 3 0 0 0 0 6 13 6 3 0 0 0 0 0 0 0 0 0 0 0 0 0 0 0 0 0 0 0 0 0 0 0 0 0 0 0 0 0 0
0 0 3 45 0 0 0 0 0 3 10 3 0 0 0 0 0 0 0 0 0 0 0 0 0 0 0 0 0 0 0 0 0 0 0 0 0 0 0 0 0 0 0
0 0 6 26 0 0 0 0 0 6 6 0 0 0 0 0 0 0 0 0 0 0 0 0 0 0 0 0 0 0 0 0 0 0 0 0 0 0 0 0 0 0 0
0 0 3 3 0 0 0 0 0 6 3 0 0 0 0 0 0 0 0 0 0 0 0 0 0 0 0 0 0 0 0 0 0 0 0 0 0 0 0 0 0 0 0
0 0 0 10 0 0 6 0 0 6 0 0 0 0 0 0 0 0 0 0 0 0 0 0 0 0 0 0 0 0 0 0 0 0 0 0 0 0 0 0 0 0 0
0 0 0 0 0 0 0 0 0 0 0 0 3 3 0 0 0 0 0 0 0 0 0 0 0 0 0 0 0 0 0 0 0 0 0 0 0 0 0 0 0 0 0
0 0 0 0 0 0 0 0 0 0 0 0 0 0 0 0 0 0 0 0 0 0 0 0 0 0 0 0 0 0 0 0 0 0 0 0 0 0 0 0 0 0 0
3 0 0 0 0 0 0 0 0 0 0 0 0 0 0 0 0 0 0 0 0 0 0 0 0 0 0 0 0 0 0 0 0 0 0 0 0 0 0 0 0 0 0
16 6 3 0 0 0 0 0 0 0 0 0 0 0 0 0 0 0 0 0 0 0 0 0 0 0 0 0 0 0 0 0 0 0 0 0 0 0 0 0 0 0 0
26 19 10 6 0 0 0 0 0 0 0 0 0 0 0 0 0 0 0 0 0 0 0 0 0 0 0 0 0 0 0 0 0 0 0 0 0 0 0 0 0 0 0
52 39 23 13 6 0 0 0 0 0 0 0 0 0 0 0 0 0 0 0 0 0 0 0 0 0 0 0 0 0 0 0 0 0 0 0 0 0 0 0 0 0 0
65 58 45 42 19 0 0 0 0 0 0 0 0 0 0 0 0 0 0 0 0 0 0 0 0 0 0 0 0 0 0 0 0 0 0 0 0 0 0 0 0 0 0
39 68 71 68 52 13 0 0 0 0 0 0 0 0 0 0 0 0 0 0 0 0 0 0 0 0 0 0 0 0 0 0 0 0 0 0 0 0 0 0 0 0 0
3 39 68 77 71 55 13 0 0 0 0 0 0 0 0 0 0 0 0 0 0 0 0 0 0 0 0 0 0 0 0 0 0 0 0 0 0 0 0 0 0 0 0
0 3 32 74 87 77 55 16 3 0 0 0 0 0 0 0 0 0 0 0 0 0 0 0 0 0 0 0 0 0 0 0 0 0 0 0 0 0 0 0 0 0 0
0 0 6 13 58 84 81 52 19 6 0 0 0 0 0 0 0 0 0 0 0 0 0 0 0 0 0 0 0 0 0 0 0 0 0 0 0 0 0 0 0 0 0
0 0 0 3 13 68 77 74 48 23 6 0 0 0 0 0 0 0 0 0 0 0 0 0 0 0 0 0 0 0 0 0 0 0 0 0 0 0 0 0 0 0 0
0 0 0 0 0 13 61 77 68 39 13 3 0 0 0 0 0 0 0 0 0 0 0 0 0 0 0 0 0 0 0 0 0 0 0 0 0 0 0 0 0 0 0
0 0 0 0 0 3 16 45 32 19 6 6 0 0 0 0 0 0 0 0 0 0 0 0 0 0 0 0 0 0 0 0 0 0 0 0 0 0 0 0 0 0 0
0 0 0 0 0 3 6 10 6 0 0 3 0 0 0 0 0 0 0 0 0 0 0 0 0 0 0 0 0 0 0 0 0 0 0 0 0 0 0 0 0 0 0
0 0 0 0 0 0 0 0 13 10 3 3 0 0 0 0 0 0 0 0 0 0 0 0 0 0 0 0 0 0 0 0 0 0 0 0 0 0 0 0 0 0 0
0 0 0 0 0 0 0 0 3 3 0 0 0 0 0 0 0 0 0 0 0 0 0 0 0 0 0 0 0 0 0 0 0 0 0 0 0 0 0 0 0 0 0
0 0 0 0 0 0 0 0 0 0 0 0 0 0 0 0 0 0 0 0 0 0 0 0 0 0 0 0 0 0 0 0 0 0 0 0 0 0 0 0 0 0 0
Height
5869 5870 5871 5871 5871 5871 5872 5872 5873 5873 5874 5875 5875 5876 5876 5877 5878 5878 5878 5879 5879 5878 5878 5878 5877 5877 5877 5877 5877 5876 5876 5876 5876 5876 5876 5876 5876 5875 5875 5874 5873 5873 5872
5867 5867 5868 5869 5869 5869 5869 5870 5870 5871 5871 5872 5872 5873 5873 5874 5875 5875 5876 5876 5876 5876 5876 5876 5875 5875 5875 5874 5874 5873 5873 5873 5873 5873 5873 5873 5873 5873 5872 5872 5871 5870 5869
5863 5864 5865 5866 5866 5866 5867 5867 5868 5868 5869 5869 5869 5870 5870 5871 5872 5872 5873 5873 5873 5873 5873 5873 5873 5872 5872 5871 5871 5870 5870 5870 5870 5870 5870 5870 5870 5870 5869 5869 5868 5867 5866
5861 5862 5862 5863 5863 5863 5864 5865 5865 5866 5866 5866 5867 5867 5867 5867 5868 5869 5869 5869 5870 5870 5870 5870 5870 5869 5869 5868 5867 5867 5866 5866 5867 5867 5866 5866 5866 5866 5866 5865 5865 5864 5863
5858 5859 5860 5860 5860 5861 5861 5862 5863 5863 5863 5864 5864 5864 5864 5864 5865 5865 5865 5865 5866 5866 5866 5866 5866 5866 5865 5865 5864 5863 5863 5863 5863 5863 5863 5863 5863 5863 5862 5862 5861 5860 5859
5855 5855 5856 5857 5857 5858 5859 5859 5860 5860 5860 5860 5860 5861 5861 5861 5861 5861 5861 5861 5862 5862 5862 5862 5862 5862 5861 5861 5861 5860 5860 5860 5860 5860 5860 5860 5859 5859 5858 5858 5857 5856 5855
5852 5852 5853 5854 5854 5855 5855 5856 5856 5857 5857 5857 5857 5857 5857 5857 5857 5857 5858 5858 5857 5857 5857 5858 5857 5857 5857 5857 5857 5857 5856 5856 5856 5856 5856 5856 5855 5855 5855 5854 5853 5852 5852
5848 5849 5849 5850 5851 5851 5852 5852 5853 5854 5854 5854 5854 5854 5854 5854 5854 5854 5854 5854 5854 5854 5854 5853 5853 5853 5853 5853 5853 5853 5853 5852 5852 5852 5852 5852 5851 5851 5851 5850 5849 5849 5848
5843 5844 5845 5846 5847 5847 5848 5849 5849 5850 5850 5851 5851 5851 5851 5851 5851 5851 5851 5851 5850 5850 5850 5850 5849 5849 5848 5848 5849 5848 5848 5848 5848 5848 5848 5848 5847 5847 5846 5845 5845 5844 5843
5838 5840 5841 5842 5842 5843 5844 5845 5845 5846 5846 5847 5847 5848 5848 5848 5848 5847 5847 5847 5847 5846 5846 5846 5846 5845 5844 5844 5844 5844 5844 5844 5844 5844 5843 5843 5842 5842 5841 5840 5840 5839 5838
5833 5834 5836 5837 5838 5839 5840 5840 5841 5841 5842 5843 5843 5843 5844 5844 5844 5844 5844 5843 5843 5843 5842 5842 5842 5841 5840 5840 5840 5840 5840 5840 5839 5839 5839 5838 5837 5837 5836 5835 5834 5833 5832
5827 5828 5830 5831 5832 5834 5835 5836 5836 5837 5837 5838 5838 5839 5839 5839 5840 5840 5840 5839 5839 5838 5838 5838 5838 5838 5837 5836 5835 5835 5835 5835 5834 5834 5833 5833 5832 5831 5830 5829 5827 5826 5825
5820 5822 5824 5826 5827 5828 5829 5830 5831 5832 5832 5833 5833 5834 5834 5834 5835 5835 5835 5835 5835 5834 5834 5834 5834 5833 5833 5832 5831 5830 5830 5829 5829 5828 5828 5827 5826 5824 5823 5821 5820 5819 5818
5816 5817 5818 5820 5821 5822 5823 5824 5826 5826 5827 5827 5828 5828 5828 5829 5829 5829 5829 5830 5830 5830 5829 5829 5829 5828 5828 5827 5826 5826 5825 5825 5824 5823 5822 5821 5819 5818 5816 5815 5813 5812 5811
5811 5812 5812 5813 5815 5816 5817 5818 5820 5820 5821 5821 5822 5823 5823 5823 5823 5823 5823 5823 5824 5824 5824 5824 5823 5823 5823 5822 5821 5821 5820 5819 5818 5817 5816 5814 5813 5811 5810 5808 5806 5805 5804
5806 5806 5806 5807 5808 5809 5811 5812 5813 5813 5814 5814 5816 5816 5817 5817 5817 5817 5817 5817 5817 5818 5818 5818 5817 5817 5817 5817 5816 5815 5814 5813 5812 5811 5810 5808 5807 5805 5803 5801 5799 5798 5797
5799 5800 5800 5801 5802 5803 5804 5805 5806 5806 5807 5808 5809 5810 5810 5811 5810 5810 5810 5810 5811 5811 5812 5811 5811 5811 5811 5811 5810 5809 5808 5807 5806 5804 5803 5801 5799 5798 5796 5794 5792 5791 5789
5791 5792 5793 5794 5795 5796 5797 5798 5798 5799 5799 5801 5802 5803 5804 5804 5804 5803 5803 5803 5804 5805 5805 5805 5805 5805 5805 5804 5803 5802 5801 5800 5798 5797 5795 5794 5792 5790 5788 5786 5785 5783 5782
5782 5784 5785 5786 5787 5788 5790 5790 5790 5791 5792 5794 5795 5796 5797 5797 5797 5797 5797 5797 5797 5797 5798 5798 5798 5798 5797 5797 5796 5795 5794 5792 5791 5790 5788 5786 5784 5782 5781 5779 5777 5775 5774
5773 5775 5776 5777 5778 5780 5781 5781 5782 5783 5785 5786 5787 5788 5789 5789 5789 5790 5790 5790 5790 5790 5790 5790 5790 5790 5790 5790 5789 5788 5787 5785 5784 5782 5781 5779 5777 5775 5773 5771 5769 5767 5766
5764 5765 5767 5768 5769 5770 5771 5772 5773 5775 5777 5778 5778 5779 5780 5781 5782 5782 5782 5783 5783 5783 5783 5783 5783 5783 5783 5782 5782 5780 5779 5778 5777 5775 5773 5771 5769 5767 5765 5763 5761 5759 5757
5754 5756 5757 5758 5759 5759 5760 5762 5764 5765 5766 5768 5769 5770 5772 5774 5774 5774 5774 5775 5775 5775 5775 5776 5776 5776 5775 5775 5774 5773 5772 5771 5769 5767 5766 5764 5761 5759 5757 5755 5753 5751 5748
5744 5745 5746 5747 5748 5748 5749 5751 5753 5754 5756 5758 5760 5762 5764 5764 5764 5764 5765 5766 5766 5767 5767 5768 5768 5768 5767 5767 5766 5766 5764 5763 5761 5759 5757 5755 5753 5751 5749 5747 5744 5742 5739
5734 5734 5735 5735 5736 5737 5737 5739 5741 5743 5746 5748 5749 5751 5752 5753 5754 5755 5756 5757 5758 5758 5759 5759 5759 5759 5759 5759 5758 5757 5756 5755 5753 5751 5749 5746 5744 5741 5739 5737 5734 5732 5729
5723 5723 5723 5724 5724 5725 5725 5727 5729 5731 5734 5735 5737 5738 5740 5742 5744 5745 5746 5747 5748 5749 5750 5750 5750 5750 5750 5750 5749 5748 5746 5745 5743 5742 5740 5737 5734 5731 5729 5726 5723 5720 5718
5713 5713 5712 5712 5712 5712 5712 5714 5715 5718 5720 5722 5724 5726 5728 5730 5732 5734 5736 5737 5738 5739 5740 5740 5740 5740 5740 5740 5740 5738 5737 5735 5733 5731 5729 5727 5724 5721 5717 5714 5711 5708 5705
Wind_Speed
17 16 15 14 14 15 16 16 16 17 17 18 18 18 17 17 16 16 16 16 16 16 17 17 17 17 16 17 17 17 17 17 17 17 17 17 17 17 17 18 18 18 18
17 16 15 15 15 16 17 16 15 16 16 17 18 18 18 18 18 18 18 18 18 18 19 19 19 18 18 18 18 18 17 17 17 17 17 17 17 17 17 18 19 19 19
17 16 15 15 16 17 18 17 16 16 16 16 17 17 18 19 20 20 21 21 21 21 20 20 20 20 19 19 19 19 19 19 18 18 18 18 18 18 18 18 19 20 21
17 16 15 16 17 18 18 18 17 17 16 16 16 17 17 18 19 20 21 21 22 22 21 20 20 21 21 20 21 21 21 20 19 19 19 19 19 19 19 19 20 21 22
18 17 17 17 18 18 18 18 18 17 17 17 17 18 18 18 19 20 20 20 21 21 21 21 21 21 21 21 22 22 21 20 20 20 20 20 19 19 19 20 21 22 23
21 20 20 20 20 20 19 19 19 19 19 19 19 19 18 19 19 20 20 20 20 21 21 21 21 21 22 22 22 23 22 21 21 21 20 20 20 20 20 21 21 22 22
25 25 24 23 22 22 22 21 21 20 20 19 19 18 18 17 17 18 19 19 20 20 21 21 21 21 22 22 23 23 22 22 21 21 21 21 21 22 22 22 23 23 23
28 28 27 26 25 24 24 23 22 21 20 19 18 18 17 16 16 17 17 18 19 20 21 21 21 21 22 22 23 23 22 22 21 22 22 22 23 24 24 25 25 25 24
30 29 29 28 27 26 25 24 23 22 21 19 18 18 18 17 17 17 18 18 19 19 20 21 21 21 21 22 22 22 22 23 23 24 24 25 26 27 27 28 28 27 27
30 30 30 29 28 27 27 26 25 23 22 20 20 19 19 18 18 18 19 19 19 19 19 19 20 20 21 22 22 23 23 24 26 27 28 29 30 30 31 32 32 31 30
28 29 29 29 29 29 28 27 26 25 24 23 22 22 21 20 20 19 19 19 19 19 19 19 19 19 20 21 23 24 25 27 29 30 32 33 33 34 35 36 36 36 34
28 29 29 29 30 30 29 28 27 27 26 25 25 24 24 22 21 20 20 20 20 20 20 20 20 20 20 21 22 23 25 28 30 32 34 35 36 37 37 38 38 38 37
29 29 28 29 30 30 29 29 29 29 29 28 28 27 26 25 24 22 22 22 21 21 21 21 22 22 22 23 23 23 24 25 27 29 30 32 33 34 35 36 36 35 35
30 30 30 30 30 29 29 29 30 30 30 30 30 29 28 27 26 25 24 24 24 23 23 23 24 24 24 24 24 25 25 26 27 28 29 31 32 33 34 34 33 33 33
30 31 32 32 31 31 30 30 31 31 32 32 31 30 29 28 28 27 27 27 26 25 25 25 25 25 25 25 25 26 26 28 29 29 30 31 32 33 34 33 33 32 31
30 32 34 34 34 34 33 32 33 33 34 33 32 30 29 29 29 28 28 28 28 27 27 26 27 27 26 26 27 27 28 30 31 32 33 34 35 35 35 34 33 32 31
31 32 34 36 37 36 35 35 35 35 35 34 33 32 30 29 29 29 29 29 29 28 28 28 28 28 29 29 29 30 31 32 33 34 35 36 36 36 35 34 34 33 32
34 34 35 37 39 39 38 38 38 37 37 36 34 33 31 31 30 30 30 30 30 29 29 30 30 30 31 32 33 33 34 34 35 35 37 38 38 38 36 35 34 34 34
37 37 38 39 40 41 41 41 40 40 39 37 35 34 32 32 32 31 31 32 31 31 31 31 31 32 33 33 34 34 34 35 35 36 37 38 38 37 36 35 34 34 35
41 40 40 41 42 42 43 43 42 41 39 38 37 36 35 34 33 33 34 33 32 32 32 32 32 33 33 33 33 33 33 34 35 36 37 37 37 36 36 35 35 35 36
44 43 43 43 44 45 45 44 44 42 41 40 40 39 38 37 35 35 36 35 34 34 33 34 34 33 33 33 33 32 33 33 34 35 36 36 36 35 35 35 36 36 37
46 46 45 45 46 47 47 46 46 45 44 44 43 42 40 38 38 38 38 37 36 36 35 35 35 34 34 34 34 34 34 34 35 35 36 36 35 35 36 36 37 37 38
48 47 47 47 48 49 50 50 49 48 48 47 45 42 41 41 42 42 41 41 40 39 38 37 37 37 37 36 36 35 35 36 36 37 37 37 37 37 38 38 39 40 40
48 48 48 49 49 50 51 51 51 50 50 49 47 46 45 45 45 45 44 44 43 41 40 40 40 39 39 39 38 38 38 38 38 38 39 39 39 40 40 41 42 42 43
47 47 48 49 50 51 52 53 53 52 51 51 51 50 49 48 47 46 47 47 47 45 44 43 43 42 42 41 40 40 41 41 41 41 40 41 42 42 43 44 45 45 46
46 48 49 50 51 53 54 55 56 55 55 54 53 53 52 51 49 48 48 48 48 48 47 47 46 45 44 43 42 43 43 43 43 43 43 44 44 45 46 47 49 49 48
Wind_Direction
258 258 262 267 271 272 273 272 271 270 269 269 268 266 263 263 265 269 275 281 285 290 293 295 294 293 290 285 280 279 280 282 284 286 286 285 283 281 281 281 282 283 284
258 256 260 265 269 271 273 276 277 277 276 276 274 271 267 264 264 266 270 275 279 283 286 287 287 287 286 283 279 276 276 277 280 282 284 284 284 283 282 284 286 287 288
255 255 256 260 265 269 273 275 278 280 281 282 282 279 275 273 272 273 274 275 277 280 281 281 281 280 280 279 277 275 274 275 278 280 281 281 281 281 282 286 290 292 292
254 254 254 258 262 267 272 275 276 278 281 283 284 284 283 282 282 281 280 279 279 279 279 279 278 277 276 276 274 273 273 274 276 276 276 276 278 281 287 292 296 298 297
255 256 256 258 262 266 271 274 277 280 282 283 283 283 284 285 285 286 285 282 280 279 279 279 279 277 275 273 273 273 272 272 272 272 273 275 279 284 291 296 299 300 300
258 260 260 260 262 266 271 275 278 281 283 284 284 285 287 288 287 288 289 287 283 281 280 279 278 277 274 273 272 272 271 271 272 273 274 276 280 286 292 297 301 303 303
259 261 262 263 264 267 270 273 276 279 283 286 287 289 292 294 295 295 295 293 289 285 281 278 277 276 275 273 272 270 269 270 272 272 273 277 282 288 294 299 302 303 305
259 260 263 264 265 267 270 272 274 277 281 286 288 291 293 295 298 300 300 299 295 289 283 277 276 276 275 273 271 269 268 268 268 269 272 277 282 287 292 296 300 303 303
257 258 261 263 265 267 269 271 274 276 279 282 287 291 293 295 296 298 298 297 294 290 284 279 277 276 274 272 269 266 264 263 264 266 270 275 280 285 290 293 296 298 299
256 258 259 261 264 267 269 270 272 274 276 279 283 287 291 292 293 292 293 292 291 288 284 281 280 279 277 274 271 268 265 263 263 266 270 275 280 285 288 291 291 292 293
254 256 258 260 262 264 266 269 270 272 275 278 281 283 286 288 289 288 287 287 286 286 285 284 283 283 282 280 277 274 271 268 267 269 272 276 280 284 286 287 287 287 287
252 253 255 258 260 262 264 267 269 271 274 277 279 281 283 284 284 284 283 281 279 280 282 283 284 284 284 283 282 280 278 276 274 275 276 279 282 285 286 288 287 285 283
250 253 254 256 258 261 264 266 268 271 274 276 277 279 280 280 279 279 279 278 275 273 275 279 282 283 284 284 285 284 283 282 282 281 282 284 286 288 290 291 291 288 285
250 252 253 255 256 259 262 264 266 269 271 273 274 276 277 277 276 275 274 275 273 271 271 274 277 280 282 284 285 285 285 284 284 285 286 288 290 291 292 293 292 290 287
252 252 253 253 253 255 257 260 263 265 267 269 271 273 274 274 274 272 271 271 271 271 271 272 274 277 279 282 284 285 285 286 287 289 290 291 293 293 293 292 291 289 286
253 252 253 253 253 253 254 256 259 262 264 266 268 270 271 272 271 270 268 268 269 270 271 272 274 276 279 281 283 284 286 288 289 290 291 293 294 295 294 292 290 287 284
252 251 252 253 253 254 254 255 258 260 263 265 266 268 270 270 270 269 267 267 268 269 271 272 274 277 279 282 284 286 286 287 289 290 291 293 294 294 293 291 288 284 281
253 251 251 252 253 254 254 254 255 257 259 262 264 266 269 269 269 268 267 267 268 269 270 272 274 277 280 283 285 286 286 286 288 289 291 293 294 294 292 290 287 284 281
254 253 252 252 253 253 254 253 253 254 256 259 261 264 266 267 268 269 268 267 267 268 269 271 275 278 281 283 285 287 287 286 288 289 292 294 295 295 294 292 290 287 285
255 254 254 254 254 253 254 254 254 254 255 257 258 259 260 262 265 268 268 267 267 267 269 271 274 278 281 283 285 287 287 287 289 291 293 295 297 297 296 295 293 291 289
257 257 257 256 256 255 254 254 254 255 254 254 254 255 256 259 263 266 268 268 267 267 269 271 273 276 279 282 284 286 287 289 290 292 294 296 298 299 298 298 297 295 293
261 261 260 259 258 257 256 254 253 253 253 253 253 255 257 260 261 263 265 265 266 267 269 270 271 274 277 280 283 284 286 288 290 292 294 296 297 299 300 300 299 298 296
262 262 261 260 259 258 257 256 254 252 253 253 255 257 258 257 258 259 261 262 264 265 267 269 270 273 275 278 281 283 285 287 288 291 293 294 296 298 299 300 299 299 297
264 264 263 262 261 260 259 258 257 255 254 254 254 254 253 254 255 258 259 261 263 265 266 268 270 273 275 277 279 281 284 285 287 288 291 293 295 297 298 299 298 298 297
266 265 265 264 263 262 261 259 258 257 255 254 253 254 254 255 256 258 260 261 262 264 266 267 270 272 274 276 279 281 282 284 285 287 288 291 293 295 297 298 297 297 297
266 267 266 265 264 262 261 260 259 258 257 255 254 254 254 254 255 256 258 260 262 263 265 267 269 272 274 276 278 280 281 282 284 286 288 290 292 294 296 296 296 296 297